Location: Castelnau
(43.0007°N, 1.3422°E)
Time: 15:58:08
(UTC+00:00)

Daily predictions for brighter satellites

Satellite Brightness Start Highest point End
(mag) Time Altitude Azimuth Time Altitude Azimuth Time Altitude Azimuth
Cosmos 1140 Rocket 3.8 19:57:24 10° SSW 20:02:36 73° WNW 20:07:48 10° NNE
NOSS 3-4 (A) 4.3 19:58:39 10° NW 20:05:40 68° WSW 20:13:43 10° SSE
NOSS 3-4 (C) 4.3 19:58:42 10° NW 20:05:43 68° WSW 20:13:44 10° SSE
Cosmos 1707 3.9 20:03:25 10° SE 20:06:16 22° E 20:09:08 10° NE
Cosmos 1515 Rocket 4.1 20:03:04 10° SSE 20:07:03 38° E 20:11:05 10° NNE
SL-4 R/B 2.7 20:03:29 10° WSW 20:07:07 55° NNW 20:11:01 10° NE
Cosmos 1633 Rocket 3.1 20:06:43 10° N 20:11:09 88° E 20:15:30 10° S
Cosmos 1190 Rocket 4.3 20:06:23 10° S 20:11:26 48° ESE 20:16:32 10° NNE
CZ-4B R/B 4.0 20:07:45 10° S 20:12:51 49° W 20:18:01 10° NNW
Okean O Rocket 2.1 20:10:34 10° S 20:14:55 64° WSW 20:19:18 10° NNW
SeaSat 1 3.2 20:12:46 10° SE 20:17:22 42° NE 20:21:58 10° NNW
Cosmos 1766 3.1 20:14:52 10° N 20:18:39 75° E 20:22:23 10° SSE
EXPRESS MD2 2.4 20:15:05 10° SW 20:18:43 67° SSE 20:21:07 10° ENE
CZ-4 R/B 4.0 20:19:15 10° SW 20:22:04 19° W 20:24:56 10° NW
Cosmos 2026 Rocket 4.1 20:16:22 10° S 20:22:34 81° W 20:28:42 10° N
Cosmos 1066 Rocket 4.3 20:17:07 10° S 20:22:58 88° E 20:28:48 10° N
Cosmos 1470 Rocket 3.5 20:18:46 10° N 20:23:09 74° E 20:27:27 10° SSE
USA 234 3.2 20:17:56 10° NE 20:24:28 73° SE 20:31:00 10° SW
IRIDIUM 104 4.3 20:22:41 10° N 20:27:56 77° E 20:33:08 10° S
IRS-1A Rocket 4.5 20:23:42 10° SSE 20:29:02 55° ENE 20:34:26 10° N
Cosmos 2360 Rocket 4.2 20:27:35 10° N 20:31:03 16° NE 20:34:29 10° E
Cosmos 2285 Rocket 4.4 20:26:37 10° SSW 20:32:55 72° WNW 20:39:20 10° NNE
Cosmos 2333 Rocket 4.2 20:32:13 10° N 20:35:48 17° NE 20:39:24 10° E
Atlas Centaur 2 3.8 20:29:33 10° SW 20:36:37 32° S 20:43:36 10° ESE
IRIDIUM 114 4.4 20:31:50 10° N 20:37:05 88° W 20:42:18 10° S
ERS-1 Rocket 3.3 20:33:11 11° SE 20:37:49 51° ENE 20:42:42 10° N
SL-16 R/B 3.3 20:34:12 10° N 20:39:17 32° NE 20:43:56 12° ESE
Cosmos 1441 Rocket 3.9 20:36:02 10° N 20:39:21 35° ENE 20:41:54 15° SE
Resurs 01 Rocket 3.5 20:35:58 10° SSW 20:39:43 27° W 20:43:29 10° NW
Cosmos 1763 Rocket 3.5 20:35:39 10° NNW 20:40:56 83° ENE 20:45:43 12° SSE
Cosmos 2369 3.8 20:35:20 10° NNW 20:41:06 84° WSW 20:46:32 11° SSE
Lacrosse 5 rocket 3.8 20:39:39 10° W 20:41:35 13° WSW 20:43:29 10° SSW
Cosmos 2082 Rocket 2.6 20:36:01 10° SSW 20:41:43 70° WNW 20:47:25 10° NNE
Spot 2 Rocket 4.1 20:38:13 13° SE 20:42:27 42° ENE 20:47:14 10° N
RESURS DK-1 4.4 20:39:49 10° N 20:42:28 16° NE 20:45:05 10° E
SPOT 5 2.6 20:42:46 10° SSE 20:47:05 82° WSW 20:51:27 10° NNW
Cosmos 1933 Rocket 3.6 20:43:02 10° N 20:47:27 69° E 20:51:18 13° SSE
Cosmos 1470 2.5 20:44:20 10° N 20:48:02 77° E 20:51:09 14° SSE
Cosmos 1908 3.1 20:51:39 10° N 20:55:13 62° E 20:57:42 19° SSE
Cosmos 1674 3.7 20:55:31 10° SSW 20:58:48 41° WNW 21:02:07 10° N
IRS-1C Rocket 4.2 20:54:03 11° S 20:59:05 79° WSW 21:04:23 10° NNW
ATLAS 2AS CENTAUR R/B 4.0 20:55:35 10° NNW 21:01:33 30° NE 21:07:21 10° E
Ariane Rocket 3.1 21:03:07 18° SSE 21:06:54 67° ENE 21:11:58 10° N
Cosmos 468 Rocket 4.0 21:02:50 10° NNW 21:08:05 86° WSW 21:11:55 19° SSE
Cosmos 1842 4.4 21:05:30 10° SSW 21:08:56 39° WNW 21:12:23 10° N
Cosmos 1356 Rocket 4.5 21:09:23 22° SE 21:11:01 29° E 21:14:39 10° NNE
Cosmos 1758 4.4 21:07:48 10° NNE 21:11:16 30° ENE 21:12:54 22° ESE
COSMOS 2406 4.3 21:09:29 10° SW 21:15:02 48° WNW 21:20:36 10° NNE
SPOT 3 Rocket 3.5 21:12:14 20° SSE 21:15:51 74° ENE 21:21:01 10° N
Cosmos 1850 Rocket 4.5 21:13:25 19° SSE 21:16:44 41° ESE 21:21:36 10° NE
Meteor 1-13 Rocket 4.3 21:11:43 10° S 21:17:33 84° W 21:23:18 10° N
Cosmos 1707 Rocket 4.3 21:16:09 24° SE 21:18:06 35° E 21:22:09 10° NNE
SL-27 R/B 4.0 21:19:33 15° ENE 21:19:33 15° ENE 21:20:31 10° ENE
Cosmos 1980 Rocket 3.8 21:18:53 10° NW 21:23:40 29° WSW 21:28:25 10° SSW
Cosmos 2322 Rocket 2.8 21:18:34 10° NNW 21:24:00 45° ENE 21:27:28 21° ESE
S3M 4.0 21:18:06 10° N 21:24:31 83° E 21:29:06 20° S
Spot 1 4.4 21:21:21 10° NNE 21:25:47 55° ESE 21:28:33 23° S
Cosmos 1655 Rocket 4.1 21:22:56 18° S 21:27:47 65° E 21:34:06 10° NNE
SJ 16-02 2.6 21:28:53 22° ESE 21:29:21 22° E 21:32:43 10° NE
Cosmos 2278 3.7 21:27:15 10° NNW 21:32:59 80° WSW 21:36:25 25° SSE
Landsat 5 3.4 21:29:13 10° NNE 21:33:10 60° ESE 21:35:02 30° S
Landsat 4 3.8 21:32:54 29° S 21:34:28 59° WSW 21:37:52 10° NNW
Cosmos 1741 Rocket 4.1 21:31:50 21° S 21:35:13 58° ESE 21:40:25 10° NNE
USA 245 4.4 21:34:18 18° SSW 21:36:10 34° W 21:39:44 10° NNW
USA 281 4.1 21:32:45 17° ESE 21:37:15 37° NE 21:43:11 10° N
Cosmos 2266 Rocket 4.2 21:31:15 10° SSW 21:37:29 76° W 21:43:54 10° N
Tiangong -1.3 21:34:41 10° W 21:37:28 33° SSW 21:37:28 33° SSW
Cosmos 1400 Rocket 2.9 21:35:14 20° SSW 21:37:52 71° W 21:41:44 10° N
Cosmos 540 Rocket 4.4 21:33:10 10° NNW 21:38:01 41° WSW 21:41:30 17° SSW
MetOp-A 4.1 21:37:25 28° SE 21:40:06 65° ENE 21:45:20 10° N
Okean 3 4.1 21:39:26 32° SE 21:40:27 38° E 21:44:18 10° NNE
Terra 2.6 21:37:47 18° SSW 21:41:05 46° W 21:45:37 10° NNW
Cosmos 1733 Rocket 3.3 21:38:17 10° N 21:42:38 56° E 21:44:16 34° SE
Cosmos 968 Rocket 3.7 21:41:01 29° SSE 21:43:16 48° ESE 21:48:15 10° NNE
Cosmos 2237 4.3 21:39:07 10° NNW 21:44:50 72° WSW 21:47:58 28° S
SL-4 R/B 4.3 21:43:16 10° WNW 21:46:31 25° N 21:49:56 10° NE
Cosmos 2228 Rocket 3.1 21:44:42 28° S 21:47:05 84° E 21:51:41 10° N
Cosmos 1315 Rocket 3.9 21:51:04 27° E 21:51:18 28° E 21:54:42 10° NNE
Cosmos 2219 Rocket 3.4 21:47:34 10° N 21:52:37 32° NE 21:55:47 19° ESE
ATLAS CENTAUR R/B 0.8 21:52:13 54° SSE 21:52:43 63° ESE 21:56:15 10° NE
SeaSat 1 3.9 21:51:57 16° SSW 21:54:53 28° WSW 21:59:05 10° NW
Meteor 2-10 Rocket 3.8 21:52:08 10° NNW 21:57:43 72° W 22:00:34 29° S
Cosmos 1953 3.4 21:57:02 10° NNE 22:00:22 27° ENE 22:00:51 26° E
H-2A R/B 4.3 21:59:30 18° E 22:00:50 21° ENE 22:04:01 10° NNE
Cosmos 1455 3.5 22:00:39 10° NNE 22:03:34 24° ENE 22:03:41 24° ENE
Okean 1-7 3.4 22:04:58 41° ESE 22:05:41 45° E 22:09:50 10° NNE
BREEZE-M DEB (TANK) 2.5 22:06:19 10° NW 22:08:29 63° NNE 22:09:09 46° E
CZ-2C R/B 3.8 22:06:30 10° NNE 22:10:49 52° E 22:11:36 45° SE
Cosmos 2315 Rocket 4.4 22:09:15 10° NNW 22:15:31 60° W 22:19:12 25° SSW
Cosmos 2360 Rocket 2.1 22:10:11 10° NNW 22:15:54 86° ENE 22:18:06 39° SSE
Cosmos 841 Rocket 4.3 22:13:36 10° NNW 22:18:33 43° WSW 22:20:45 28° SSW
RESURS DK-1 2.7 22:16:32 10° NW 22:20:30 52° WSW 22:21:10 46° SSW
Cosmos 2333 Rocket 2.2 22:15:10 10° NNW 22:20:57 87° ENE 22:23:08 40° SSE
SL-16 R/B 3.0 22:18:11 10° NW 22:23:26 40° WSW 22:25:47 27° SSW
Atlas Centaur 2 3.7 22:18:06 10° WSW 22:25:07 30° S 22:25:49 30° S
Cosmos 1300 3.8 22:23:01 10° NNW 22:26:11 30° W 22:26:54 28° WSW
SL-08 R/B 4.4 22:25:46 38° SSE 22:28:10 69° E 22:34:13 10° NNE
Aureole 3 3.9 22:30:50 38° SW 22:31:51 50° WNW 22:36:09 10° N
Cosmos 1703 Rocket 3.6 22:32:44 55° SE 22:33:17 60° E 22:37:42 10° NNE
Cosmos 1833 4.3 22:30:08 24° SSW 22:33:35 76° WNW 22:39:13 10° NNE
Cosmos 1346 Rocket 3.9 22:32:22 10° NNW 22:35:52 33° W 22:36:35 30° WSW
Meteor 1-4 Rocket 3.3 22:41:49 38° WNW 22:41:49 38° WNW 22:44:23 10° N
Cosmos 1932 4.4 22:38:31 25° SSW 22:42:25 88° SE 22:48:44 10° NE
Cosmos 839 Rocket 4.0 22:38:29 10° NNW 22:45:21 86° ENE 22:47:42 41° SE
BlueWalker 3 4.3 22:50:04 13° ENE 22:50:04 13° ENE 22:50:33 10° ENE
Cosmos 2322 4.3 22:41:49 10° NNW 22:47:20 48° ENE 22:49:30 32° ESE
Cosmos 2237 Rocket 4.3 22:44:09 10° N 22:48:05 19° NE 22:51:59 10° E
SL-27 R/B 4.5 22:50:57 15° WNW 22:51:27 16° WNW 22:53:18 10° NNW
ATLAS 2AS CENTAUR R/B 2.6 22:46:16 10° NW 22:53:01 70° WSW 22:55:16 43° S
Cosmos 2333 4.3 22:47:30 10° NNW 22:53:14 68° WSW 22:54:50 47° S
ARIANE 5 R/B 2.7 22:54:59 55° SW 22:55:29 60° W 22:59:47 10° NNW
SL-24 R/B - RUBIN 2 4.5 22:52:30 10° NNW 22:59:09 77° NE 23:01:28 41° SE
Okean 2 4.2 23:00:22 37° WSW 23:01:04 41° WNW 23:04:52 10° N
PSLV R/B 4.2 22:58:24 10° N 23:02:19 56° WNW 23:02:50 51° WSW
Cosmos 1745 Rocket 3.9 23:05:11 45° S 23:07:18 85° E 23:13:42 10° N
SJ 16-02 2.7 23:05:35 23° WSW 23:07:28 32° WNW 23:11:25 10° N
Cosmos 2322 Rocket 3.5 23:03:03 10° NW 23:07:48 28° WSW 23:09:15 25° SW
Cosmos 1570 Rocket 4.1 23:02:46 10° NNW 23:08:08 74° ENE 23:09:22 53° SE
COSMOS 2455 3.2 23:08:59 42° SE 23:09:41 44° ESE 23:15:22 10° NE
Cosmos 2297 Rocket 3.2 23:13:10 30° ESE 23:13:26 30° ESE 23:18:16 10° NE
Nadezhda 1 Rocket 4.0 23:13:30 10° N 23:19:49 75° W 23:21:42 47° SSW
Cosmos 1408 3.8 23:22:14 32° N 23:22:14 32° N 23:23:59 10° N
GP-B 4.0 23:17:12 10° NNW 23:21:18 38° W 23:22:05 35° WSW
USA 281 3.7 23:19:37 36° SSW 23:21:36 46° WSW 23:27:54 10° NW
SL-4 R/B 4.0 23:22:36 10° NW 23:26:11 29° NNE 23:29:56 10° ENE
COSMOS 2428 2.7 23:21:01 10° NNW 23:26:44 78° ENE 23:28:13 51° SE
ATLAS CENTAUR R/B 4.0 23:28:54 10° WNW 23:30:46 14° NW 23:32:41 10° N
GEOS 3 Rocket 3.7 23:26:19 10° NE 23:31:20 51° ESE 23:31:28 51° SE
Cosmos 1782 Rocket 3.8 23:29:57 10° NNW 23:34:11 54° W 23:34:15 54° W
CZ-3 Stage 3 4.1 23:11:55 10° W 23:35:13 37° SW 23:37:06 35° SSW
H-2A R/B 3.4 23:35:29 39° W 23:35:30 39° W 23:39:32 10° NNW
Cosmos 1953 4.2 23:33:12 10° NW 23:35:57 19° W 23:35:57 19° W
Spot 2 4.4 23:35:40 61° SSW 23:36:21 70° WSW 23:41:27 10° NNW
Cosmos 2219 Rocket 2.8 23:31:21 10° NW 23:36:38 41° WSW 23:37:28 39° SW
Cosmos 1455 4.2 23:35:20 10° NW 23:37:24 18° W 23:37:24 18° W
Cosmos 2208 Rocket 3.8 23:33:39 10° NNW 23:38:52 81° WSW 23:39:34 66° S
Cosmos 371 Rocket 3.1 23:39:00 69° SE 23:39:14 70° ESE 23:44:02 10° NNE
Cosmos 158 Rocket 3.8 23:36:02 10° NNW 23:41:22 83° WSW 23:42:08 65° S
Spot 4 4.4 23:42:36 42° WSW 23:42:59 43° W 23:47:33 10° NNW
Cosmos 836 Rocket 4.3 23:38:33 10° NNW 23:43:46 89° WSW 23:44:34 65° SSE
Cosmos 773 Rocket 4.2 23:43:36 10° NNW 23:48:42 62° ENE 23:49:51 49° ESE
ALOS 2 3.0 23:49:16 48° W 23:49:16 48° W 23:53:31 10° NNW
Cosmos 2151 Rocket 4.3 23:45:28 10° N 23:49:40 43° ENE 23:50:04 41° E
Cosmos 2263 Rocket 4.4 23:50:27 11° ESE 23:51:19 11° E 23:52:42 10° E
Cosmos 1503 Rocket 4.0 23:51:55 61° SSE 23:52:38 70° ESE 23:57:56 10° NNE
